This demonstration page uses our WeatherBlox Daily Observations layout. Learn more.

Left ArrowRight Arrow

Hourly Observations for September 17, 2020

Temp ( °F °C ) Dew Point ( °F °C ) Humidity (%) Winds ( mph kmh ) Pressure ( in mb ) Visibility ( mi km ) Precip ( " mm )
12:59 am 00:59 Cloudy 67 19.4 64 17.8 91 91 SE 3 6 30.11 1020 10 16 0.00 0.00
1:59 am 01:59 Mostly Cloudy 69 20.6 64 17.8 84 84 SE 5 7 30.09 1019 10 16 0.00 0.00
2:59 am 02:59 Mostly Cloudy 71 21.7 65 18.3 81 81 SE 5 7 30.07 1018 10 16 0.00 0.00
3:59 am 03:59 Mostly Cloudy 72 22.2 65 18.3 79 79 SE 7 11 30.04 1017 10 16 0.00 0.00
4:59 am 04:59 Mostly Cloudy 72 22.2 65 18.3 79 79 ESE 6 9 30.04 1017 10 16 0.00 0.00
5:59 am 05:59 Mostly Cloudy 72 22.2 65 18.3 79 79 ESE 5 7 30.03 1017 10 16 0.00 0.00
6:59 am 06:59 Mostly Cloudy 72 22.2 66 18.9 82 82 ESE 6 9 30.03 1017 10 16 0.00 0.00
7:59 am 07:59 Cloudy 73 22.8 67 19.4 81 81 ESE 3 6 30.04 1017 10 16 0.00 0.00
8:59 am 08:59 Cloudy 73 22.8 69 20.6 87 87 Calm 30.04 1017 7 11 0.00 0.00
9:59 am 09:59 Cloudy with Light Rain 73 22.8 70 21.1 90 90 Calm 30.04 1017 4 6 0.03 0.76
10:11 am 10:11 Mostly Cloudy with Rain 73 22.8 69 20.6 87 87 SSW 3 6 30.05 1018 2 2 0.07 1.78
10:14 am 10:14 Mostly Cloudy with Heavy Rain 73 22.8 69 20.6 87 87 Calm 30.05 1018 1 1 0.11 2.79
10:25 am 10:25 Cloudy with Rain 72 22.2 68 20 87 87 Calm 30.05 1018 2 2 0.20 5.08
10:49 am 10:49 Cloudy with Light Rain 71 21.7 67 19.4 87 87 E 9 15 30.05 1018 4 6 0.27 6.86
10:59 am 10:59 Cloudy with Light Rain 72 22.2 66 18.9 82 82 ESE 7 11 30.04 1017 4 6 0.27 6.86
11:59 am 11:59 Cloudy with Light Rain 70 21.1 66 18.9 87 87 E 6 9 30.03 1017 7 11 0.04 1.02
12:59 pm 12:59 Mostly Cloudy with Light Rain 72 22.2 68 20 87 87 ENE 8 13 30.02 1017 6 10 0.02 0.51
1:59 pm 13:59 Mostly Cloudy with Light Rain 72 22.2 67 19.4 84 84 E 9 15 29.99 1016 7 11 0.01 0.25
2:22 pm 14:22 Cloudy with Light Rain 72 22.2 68 20 87 87 E 8 13 29.99 1016 7 11 0.01 0.25
2:59 pm 14:59 Cloudy with Light Rain 72 22.2 68 20 87 87 ENE 10 17 29.97 1015 8 13 0.01 0.25
3:59 pm 15:59 Cloudy with Light Rain 71 21.7 66 18.9 84 84 E 8 13 29.94 1014 6 10 0.03 0.76
4:59 pm 16:59 Cloudy with Light Rain 72 22.2 68 20 87 87 ENE 10 17 29.93 1014 5 8 0.05 1.27
5:25 pm 17:25 Cloudy with Light Rain 71 21.7 68 20 90 90 E 10 17 29.92 1013 4 6 0.02 0.51
5:59 pm 17:59 Cloudy with Light Rain 71 21.7 67 19.4 87 87 E 9 15 29.91 1013 5 8 0.04 1.02
6:54 pm 18:54 Cloudy with Light Rain 72 22 66 19 83 83 E 8 13 29.91 1013 3 5 0.04 1.02
6:59 pm 18:59 Cloudy with Light Rain 70 21.1 67 19.4 90 90 E 12 19 29.90 1013 3 5 0.05 1.27
7:59 pm 19:59 Cloudy with Rain 69 20.6 66 18.9 90 90 ENE 8 13 29.91 1013 3 5 0.19 4.83
8:59 pm 20:59 Cloudy with Rain 70 21.1 67 19.4 90 90 E 8 13 29.91 1013 3 5 0.31 7.87
9:59 pm 21:59 Cloudy with Rain 70 21.1 67 19.4 90 90 E 13 20 29.89 1012 3 5 0.19 4.83
10:43 pm 22:43 Cloudy with Rain 71 21.7 68 20 90 90 E 14 22 29.88 1012 3 4 0.10 2.54
10:59 pm 22:59 Cloudy with Rain 71 21.7 68 20 90 90 E 12 19 29.87 1012 3 4 0.16 4.06
11:31 pm 23:31 Cloudy with Rain 71 21.7 68 20 90 90 E 17 28 29.87 1011 4 6 0.06 1.52
11:59 pm 23:59 Cloudy with Rain 71 21.7 68 20 90 90 E 10 17 29.85 1011 4 6 0.09 2.29

Powered by AerisWeather